Rochester, NY

5:47 PM EDT on October 20, 2019 (GMT -0400)
Greater Rochester International

Weather History for KROC - May, 2019

Change the Weather History Date:

Thursday, May 2, 2019

  Actual Average Record
Temperature  
Mean Temperature 52 °F 52 °F  
Max Temperature 63 °F 63 °F 85 °F (1942)
Min Temperature 41 °F 42 °F 26 °F (1979)
Degree Days  
Heating Degree Days 13 13  
Month to date heating degree days 19 26  
Since 1 July heating degree days 6143 6329  
Cooling Degree Days 0 0  
Month to date cooling degree days 0 0  
Year to date cooling degree days 0 4  
Moisture  
Dew Point 44 °F    
Average Humidity 84    
Maximum Humidity 96    
Minimum Humidity 71    
Precipitation  
Precipitation T in 0.09 in 1.07 in (1992)
Month to date precipitation 0.54 0.18  
Year to date precipitation 10.47 9.77  
Snow  
Snow 0.00 in 0.10 in 3.00 in (1909)
Month to date snowfall 0.0 0.1  
Since 1 July snowfall 97.1 99.2  
Snow Depth 0.00 in    
Sea Level Pressure  
Sea Level Pressure 30.14 in    
Wind  
Wind Speed 7 mph (NE)    
Max Wind Speed 13 mph    
Max Gust Speed 15 mph    
Visibility 5 miles    
Events Fog    
T = Trace of Precipitation, MM = Missing Value Source: NWS Daily Summary

Daily Weather History Graph

Daily Weather History Graph

Search for Another Location

Airport or City:

Astronomy

May. 02, 2019 Rise Set
Actual Time 6:03 AM EDT 8:12 PM EDT
Civil Twilight 5:32 AM EDT 8:44 PM EDT
Nautical Twilight 4:53 AM EDT 9:22 PM EDT
Astronomical Twilight 4:11 AM EDT 10:05 PM EDT
Moon 5:21 AM EDT (5/2) 5:52 PM EDT (5/2)
Length of Visible Light 15h 12m
Length of Day
14h 09m
Waning Crescent, 5% of the Moon is Illuminated
May 2
Waning Crescent
May 4
New
May 11
First Quarter
May 18
Full
May 26
Last Quarter

Hourly Weather History & Observations

Time (EDT) Temp. Windchill Dew Point Humidity Pressure Visibility Wind Dir Wind Speed Gust Speed Precip Events Conditions
12:54 AM 63.0 °F - 57.9 °F 84% 30.05 in 10.0 mi WSW 8.1 mph - N/A   Overcast
1:25 AM 63.0 °F - 57.9 °F 84% 30.04 in 10.0 mi West 8.1 mph - N/A   Overcast
1:54 AM 54.0 °F - 52.0 °F 93% 30.06 in 5.0 mi North 10.4 mph - N/A   Overcast
2:54 AM 52.0 °F - 50.0 °F 93% 30.05 in 9.0 mi North 5.8 mph - N/A   Overcast
3:05 AM 51.1 °F - 48.9 °F 92% 30.05 in 8.0 mi North 8.1 mph - N/A   Overcast
3:21 AM 48.9 °F - 46.9 °F 93% 30.06 in 6.0 mi NNE 8.1 mph - N/A   Overcast
3:50 AM 48.2 °F - 46.4 °F 93% 30.06 in 2.5 mi North 4.6 mph - N/A   Overcast
3:54 AM 48.9 °F - 46.0 °F 90% 30.07 in 1.5 mi North 5.8 mph - N/A   Overcast
4:32 AM 46.9 °F - 45.0 °F 93% 30.06 in 0.8 mi NNE 5.8 mph - N/A   Mist
4:54 AM 46.9 °F - 45.0 °F 93% 30.07 in 2.5 mi NE 5.8 mph - N/A   Overcast
5:18 AM 46.9 °F - 45.0 °F 93% 30.08 in 3.0 mi NNE 6.9 mph - N/A   Overcast
5:54 AM 45.0 °F 40.1 °F 43.0 °F 93% 30.11 in 0.5 mi NNE 9.2 mph - N/A   Overcast
6:54 AM 42.1 °F 36.6 °F 39.9 °F 92% 30.13 in 0.5 mi NNE 9.2 mph - N/A Fog Fog
7:54 AM 41.0 °F 36.4 °F 39.9 °F 96% 30.16 in 1.5 mi NE 6.9 mph - N/A   Overcast
8:04 AM 42.1 °F 37.1 °F 39.9 °F 92% 30.14 in 2.0 mi NE 8.1 mph - N/A   Overcast
8:41 AM 41.0 °F 35.8 °F 39.0 °F 93% 30.15 in 1.5 mi NE 8.1 mph - N/A   Overcast
8:54 AM 41.0 °F 36.4 °F 39.0 °F 93% 30.17 in 1.5 mi NE 6.9 mph - N/A   Overcast
8:58 AM 41.0 °F 36.4 °F 39.0 °F 93% 30.15 in 0.5 mi NE 6.9 mph - N/A   Overcast
9:41 AM 42.1 °F 37.1 °F 39.0 °F 89% 30.17 in 1.5 mi NNE 8.1 mph - N/A   Overcast
9:54 AM 42.1 °F 37.1 °F 39.0 °F 89% 30.19 in 1.5 mi NNE 8.1 mph - N/A   Overcast
10:54 AM 43.0 °F 38.2 °F 39.9 °F 89% 30.19 in 2.5 mi NNE 8.1 mph - N/A   Overcast
11:06 AM 43.0 °F 38.2 °F 39.0 °F 86% 30.17 in 3.0 mi NNE 8.1 mph - N/A   Overcast
11:46 AM 44.1 °F 40.8 °F 39.9 °F 85% 30.17 in 2.5 mi NE 5.8 mph - 0.00 in   Light Drizzle
11:54 AM 44.1 °F 40.8 °F 39.9 °F 85% 30.19 in 2.5 mi NE 5.8 mph - 0.00 in   Light Drizzle
12:19 PM 46.0 °F 42.5 °F 41.0 °F 83% 30.17 in 4.0 mi NNE 6.9 mph - 0.00 in   Light Drizzle
12:54 PM 46.0 °F 43.9 °F 41.0 °F 83% 30.19 in 5.0 mi NE 4.6 mph - 0.00 in   Overcast
1:54 PM 48.9 °F - 43.0 °F 80% 30.20 in 7.0 mi NNE 5.8 mph - N/A   Overcast
2:13 PM 48.9 °F - 42.1 °F 77% 30.18 in 10.0 mi NNE 5.8 mph - N/A   Overcast
2:22 PM 48.9 °F - 43.0 °F 80% 30.18 in 10.0 mi NE 3.5 mph - N/A   Overcast
2:54 PM 50.0 °F - 42.1 °F 74% 30.20 in 10.0 mi NE 4.6 mph - N/A   Overcast
3:54 PM 51.1 °F - 43.0 °F 74% 30.19 in 10.0 mi NE 5.8 mph - N/A   Overcast
4:54 PM 51.1 °F - 43.0 °F 74% 30.19 in 10.0 mi NE 5.8 mph - N/A   Overcast
5:54 PM 48.9 °F - 41.0 °F 74% 30.19 in 10.0 mi NE 11.5 mph - N/A   Overcast
6:15 PM 48.0 °F - 41.0 °F 77% 30.17 in 10.0 mi NE 8.1 mph - N/A   Overcast
6:54 PM 46.9 °F - 41.0 °F 80% 30.18 in 10.0 mi NE 10.4 mph - N/A   Overcast
7:54 PM 46.9 °F - 42.1 °F 83% 30.19 in 10.0 mi ENE 6.9 mph - N/A   Overcast
8:00 PM 46.9 °F - 42.1 °F 83% 30.16 in 10.0 mi ENE 6.9 mph - N/A   Overcast
9:54 PM 46.0 °F 41.9 °F 43.0 °F 89% 30.19 in 5.0 mi East 8.1 mph - 0.00 in   Overcast
9:57 PM 46.0 °F 42.5 °F 43.0 °F 89% 30.16 in 5.0 mi ESE 6.9 mph - N/A   Overcast
10:54 PM 46.0 °F 42.5 °F 44.1 °F 93% 30.17 in 4.0 mi East 6.9 mph - 0.00 in   Light Drizzle
11:54 PM 46.0 °F 42.5 °F 44.1 °F 93% 30.14 in 6.0 mi ESE 6.9 mph - 0.00 in   Overcast